FENGYUN 1C DEB

Satellite information

Favourite Embed

Satellite Type and Status

DEBRISIN ORBIT

Key statistics

Satellite FENGYUN 1C DEB at a glance.

Uptime

9618

Days in orbit

Revolutions

≈ 14.4

Per day

Orbit

SSO

Sun Synchronous Orbit

Inclination

98.9

Latest

Satellite identification and parameters

Extended collection of information and parameters for FENGYUN 1C DEB.

Object identification

Identified? True

Debris? True

Object name: FENGYUN 1C DEB

International designator: 1999-025QV

Object number (NORAD): 30092

Object ID (CCSDS): 30092

Country: PEOPLES REPUBLIC OF CHINA (PRC)

Current information (Y/N): Y

RCS size: SMALL

Orbital parameters

Period: 100.091 minutes

Inclination: 98.9237 deg

SMA: 7140.971 km

Apoapsis: 822.771 km

Periapsis: 702.901 km

RAAN: 65.828 deg

Eccentricy: 0.00839316

Argument of periapsis: 174.2601 deg

Mean anomaly: 245.7113 deg

Mean motion: 14.38688779 rev/day

Mean motion (dot): 0.00002503 rev/day2

B* drag term: 0.00079842647 1/REarth

Two-line elements (TLE)

Creation date: Sept. 8, 2025, 3:16 a.m.

Reference frame: TEME

Reference center: EARTH

Epoch: Sept. 7, 2025, 10:35 a.m. UTC

TLE line 0: 0 FENGYUN 1C DEB

TLE line 1: 1 30092U 99025QV 25250.44164832 .00002503 00000-0 79843-3 0 9999

TLE line 2: 2 30092 98.9237 65.8280 0083932 174.2601 245.7113 14.38688779973642

Live tracking on map

Real-time ground track for satellite FENGYUN 1C DEB.

In-orbit conjunctions

A list of the most updated potential collisions computed for object FENGYUN 1C DEB.

Target Orbit TCA Probability of collision Miss distance Type
DELTA 1 DEB SSO 2025-04-12 07:04:01 0.0001009751 253.0 (m) DEBRIS
CZ-6A DEB LEO 2024-12-31 19:43:31 0.0001511778 170.0 (m) DEBRIS

Associated space launch

Chinese polar orbiting meteorological satellite

FENGYUN 1C DEB was lifted into orbit during the mission ‘Long March 4B | Feng Yun 1C’, on board a Long March 4B space rocket.

The launch took place on May 10, 1999, 1:33 a.m. from Launch Complex 7.

For more information about the launch, click the button.

Launch to space Long March 4B | Feng Yun 1C
Long March 4B | Feng Yun 1C

Agency: N/A

Status: Launch Successful

Launch date: May 10, 1999, 1:33 a.m. UTC

Rocket: Long March 4B

Launch pad: Launch Complex 7

Location: Taiyuan Satellite Launch Center, People's Republic of China

...

Latest news about this satellite

There are no fresh news available about this satellite. Check back as we update our databases every day.


Newsletter sign-up

Weekly statistics, charts and insights to help you stay on top of the space industry.